Iowa City, IA

7:29 AM CDT on September 24, 2017 (GMT -0500)
Iowa City Municipal

Weather History for KIOW - March, 2014

Change the Weather History Date:

Wednesday, March 19, 2014

  Actual Average Record
Temperature  
Mean Temperature 34 °F 40 °F  
Max Temperature 44 °F 50 °F 75 °F (1976)
Min Temperature 23 °F 30 °F 5 °F (1965)
Degree Days  
Heating Degree Days 31 25  
Month to date heating degree days 702 556  
Since 1 July heating degree days 6495 5506  
Cooling Degree Days 0 0  
Month to date cooling degree days 0 0  
Year to date cooling degree days 0 0  
Moisture  
Dew Point 32 °F    
Average Humidity 80    
Maximum Humidity 100    
Minimum Humidity 59    
Precipitation  
Precipitation 0.00 in 0.07 in 1.07 in (1982)
Month to date precipitation 0.26 1.39  
Year to date precipitation 2.09 3.55  
Sea Level Pressure  
Sea Level Pressure 29.83 in    
Wind  
Wind Speed 12 mph (WNW)    
Max Wind Speed 26 mph    
Max Gust Speed 33 mph    
Visibility 6 miles    
Events      
T = Trace of Precipitation, MM = Missing Value Source: NWS Daily Summary

Daily Weather History Graph

Daily Weather History Graph

Search for Another Location

Airport or City:

Trip Planner

Search our weather history database for the weather conditions in past years. The results will help you decide how hot, cold, wet, or windy it might be!

Date:

Astronomy

Mar. 19, 2014 Rise Set
Actual Time 7:11 AM CDT 7:17 PM CDT
Civil Twilight 6:43 AM CDT 7:45 PM CDT
Nautical Twilight 6:11 AM CDT 8:17 PM CDT
Astronomical Twilight 5:38 AM CDT 8:50 PM CDT
Moon 10:39 PM CDT (3/19) 8:34 AM CDT (3/19)
Length of Visible Light 13h 01m
Length of Day
12h 06m
Waning Gibbous, 91% of the Moon is Illuminated
Mar 19
Waning Gibbous
Mar 23
Last Quarter
Mar 30
New
Apr 7
First Quarter
Apr 15
Full

Hourly Weather History & Observations

Time (CDT) Temp. Windchill Dew Point Humidity Pressure Visibility Wind Dir Wind Speed Gust Speed Precip Events Conditions
12:52 AM 43.0 °F 41.3 °F 39.9 °F 89% 29.60 in 6.0 mi East 3.5 mph - N/A   Overcast
1:52 AM 42.1 °F - 39.9 °F 92% 29.58 in 5.0 mi Calm Calm - N/A   Overcast
2:52 AM 39.0 °F 36.8 °F 39.0 °F 100% 29.59 in 4.0 mi NW 3.5 mph - N/A   Overcast
3:52 AM 41.0 °F 34.7 °F 39.9 °F 96% 29.58 in 3.0 mi NW 10.4 mph - N/A   Overcast
4:15 AM 39.9 °F 32.1 °F 39.0 °F 97% 29.59 in 3.0 mi WNW 13.8 mph - N/A   Overcast
4:24 AM 39.9 °F 32.9 °F 39.0 °F 97% 29.59 in 2.5 mi NW 11.5 mph - N/A   Overcast
4:52 AM 39.9 °F 33.4 °F 37.9 °F 93% 29.61 in 2.5 mi WNW 10.4 mph - N/A   Overcast
5:09 AM 39.0 °F 31.0 °F 37.9 °F 96% 29.61 in 2.5 mi WNW 13.8 mph - N/A   Overcast
5:52 AM 37.9 °F 29.6 °F 37.0 °F 97% 29.66 in 2.0 mi WNW 13.8 mph - N/A   Overcast
6:20 AM 37.0 °F 27.7 °F 36.0 °F 96% 29.68 in 2.0 mi NW 16.1 mph 24.2 mph N/A   Overcast
6:52 AM 36.0 °F 25.6 °F 35.1 °F 97% 29.72 in 2.5 mi WNW 18.4 mph 29.9 mph N/A   Overcast
7:06 AM 36.0 °F 26.7 °F 34.0 °F 93% 29.72 in 3.0 mi WNW 15.0 mph 25.3 mph N/A   Overcast
7:14 AM 36.0 °F 26.3 °F 34.0 °F 93% 29.73 in 4.0 mi NW 16.1 mph 31.1 mph N/A   Overcast
7:52 AM 36.0 °F 26.0 °F 33.1 °F 89% 29.77 in 4.0 mi NW 17.3 mph 26.5 mph N/A   Overcast
8:25 AM 36.0 °F 26.3 °F 33.1 °F 89% 29.78 in 2.5 mi NW 16.1 mph 25.3 mph N/A   Overcast
8:33 AM 36.0 °F 25.6 °F 33.1 °F 89% 29.78 in 3.0 mi WNW 18.4 mph 26.5 mph N/A   Overcast
8:52 AM 35.1 °F 24.8 °F 32.0 °F 89% 29.81 in 4.0 mi WNW 17.3 mph 25.3 mph N/A   Overcast
9:52 AM 35.1 °F 24.5 °F 30.0 °F 82% 29.85 in 8.0 mi WNW 18.4 mph 23.0 mph N/A   Overcast
10:52 AM 35.1 °F 25.2 °F 30.0 °F 82% 29.89 in 9.0 mi NW 16.1 mph 32.2 mph N/A   Overcast
11:52 AM 35.1 °F 23.5 °F 28.0 °F 76% 29.92 in 8.0 mi NW 21.9 mph 25.3 mph N/A   Overcast
12:52 PM 35.1 °F 24.1 °F 28.0 °F 76% 29.96 in 8.0 mi NW 19.6 mph 27.6 mph N/A   Overcast
1:52 PM 37.0 °F 25.6 °F 27.0 °F 67% 29.96 in 10.0 mi WNW 24.2 mph 32.2 mph N/A   Overcast
2:52 PM 37.0 °F 25.6 °F 26.1 °F 65% 29.99 in 10.0 mi WNW 24.2 mph 31.1 mph N/A   Overcast
3:52 PM 36.0 °F 26.0 °F 26.1 °F 67% 30.01 in 10.0 mi NW 17.3 mph 24.2 mph N/A   Overcast
4:52 PM 37.0 °F 25.6 °F 25.0 °F 62% 30.03 in 10.0 mi WNW 24.2 mph 32.2 mph N/A   Overcast
5:52 PM 37.0 °F 28.1 °F 26.1 °F 65% 30.05 in 10.0 mi WNW 15.0 mph 25.3 mph N/A   Overcast
6:52 PM 37.0 °F 29.3 °F 26.1 °F 65% 30.07 in 10.0 mi WNW 11.5 mph 20.7 mph N/A   Overcast
7:52 PM 36.0 °F 29.6 °F 26.1 °F 67% 30.08 in 10.0 mi West 8.1 mph - N/A   Overcast
8:52 PM 32.0 °F 27.5 °F 26.1 °F 79% 30.08 in 10.0 mi West 4.6 mph - N/A   Clear
9:52 PM 30.0 °F - 24.1 °F 79% 30.08 in 10.0 mi Calm Calm - N/A   Clear
10:52 PM 25.0 °F - 21.9 °F 88% 30.09 in 10.0 mi Calm Calm - N/A   Clear
11:52 PM 26.1 °F - 23.0 °F 88% 30.09 in 10.0 mi Calm Calm - N/A   Clear